RH
14 13 13 14 14 14 14 14 14 14 13 13 12 12 13 13 12 15 21 23 23 18 18 19 24 25 32 32 37 35 30 29 31
14 14 14 14 15 14 14 14 14 13 13 13 12 12 12 11 10 9 9 12 14 16 18 17 16 18 40 51 57 58 54 60 65
14 15 15 15 14 13 13 13 12 13 12 12 12 11 11 10 9 9 8 8 8 8 10 13 14 15 16 26 45 52 59 65 72
16 15 15 14 13 12 12 12 12 11 10 10 9 9 9 9 9 9 9 9 9 8 8 8 8 9 11 13 16 25 43 44 54
18 17 16 14 14 14 14 12 11 10 9 8 8 7 8 8 8 8 9 9 9 10 10 9 9 9 9 9 9 11 14 23 33
18 17 16 15 14 14 12 11 10 8 8 7 7 7 7 7 7 8 9 10 10 10 11 10 10 10 10 10 10 10 10 10 10
17 15 14 13 13 12 10 10 8 8 8 8 9 10 10 10 10 10 10 9 10 10 11 12 11 10 10 10 10 11 11 11 10
15 14 12 12 12 10 10 9 9 11 11 10 9 9 9 10 12 12 12 12 13 13 12 10 12 11 12 12 11 10 11 11 11
14 13 13 12 11 11 10 11 12 11 10 9 9 10 11 10 11 11 12 12 14 16 16 14 14 14 14 13 12 12 13 13 12
15 14 14 12 12 12 13 13 12 11 11 10 10 12 12 12 12 12 12 13 17 19 19 18 18 19 18 16 16 15 15 14 14
14 14 14 13 13 12 15 13 12 10 11 12 13 12 12 12 12 12 12 13 17 21 22 22 24 25 29 30 27 25 24 20 18
16 16 15 14 13 14 15 14 12 12 12 12 13 13 13 12 13 13 12 14 18 23 24 25 30 41 48 52 51 45 37 28 26
20 18 17 16 14 17 17 15 15 14 14 14 14 13 14 13 13 16 14 15 25 28 28 30 35 50 62 69 61 57 42 37 33
22 19 18 17 17 18 18 18 17 19 18 17 16 15 15 13 11 14 17 15 24 30 32 35 48 62 68 77 81 55 47 47 50
24 22 20 19 20 19 21 21 23 19 21 25 22 17 15 15 11 12 16 17 20 25 33 36 49 66 70 78 74 54 49 54 54
25 23 20 22 24 22 26 28 28 21 20 22 25 24 18 17 16 13 15 18 22 26 33 35 57 65 74 84 65 52 55 61 55
25 21 22 27 29 27 28 29 29 27 25 23 24 26 26 19 19 20 19 22 26 30 32 36 54 60 69 77 58 53 58 63 55
24 24 28 32 33 33 31 32 32 33 33 32 29 26 30 27 22 25 28 30 29 30 30 37 47 55 70 74 57 53 59 61 53
28 33 39 42 46 46 44 42 40 40 41 41 38 35 31 32 29 24 30 31 33 31 31 37 42 56 73 68 56 53 68 58 58
46 57 56 48 45 46 45 48 58 62 61 60 56 49 43 37 33 30 28 34 34 34 34 41 46 54 56 60 56 52 72 57 60
Wind_Speed
30 31 32 33 37 40 43 46 48 50 52 56 58 60 61 62 64 65 66 66 65 64 62 62 62 62 58 58 59 59 60 60 59
32 34 36 39 43 46 49 50 53 55 56 60 64 66 66 67 68 67 68 69 70 69 67 68 68 67 62 60 60 57 59 57 57
38 43 44 47 50 51 54 57 61 61 63 67 67 71 72 73 73 73 72 72 72 70 72 71 71 70 70 69 65 63 64 60 54
46 49 51 53 56 58 61 64 63 66 69 72 73 73 73 75 77 78 78 77 76 75 74 75 74 73 72 72 72 70 66 67 66
52 55 58 60 63 65 68 69 69 72 72 72 74 77 79 79 79 79 80 82 80 79 80 78 77 75 74 72 72 69 69 68 66
57 59 61 64 67 71 72 72 75 75 74 75 76 75 75 77 79 81 82 83 86 86 83 83 79 77 78 76 73 70 66 66 65
60 62 66 69 72 71 72 75 75 75 71 68 64 63 63 64 64 66 70 72 77 83 89 88 87 83 79 77 75 73 71 70 65
64 68 70 72 71 71 77 74 70 65 61 59 59 59 58 58 58 60 61 62 64 68 76 80 85 84 82 80 76 70 70 70 67
67 73 72 72 71 79 77 68 60 57 55 53 53 53 52 53 53 55 55 56 59 61 65 69 73 79 80 81 79 74 74 70 69
73 77 77 72 73 80 69 58 51 49 50 53 50 46 47 49 49 49 53 53 54 56 58 61 62 64 69 73 74 71 71 71 67
78 80 78 74 77 76 62 53 47 47 46 46 45 44 41 44 46 47 49 51 51 51 53 56 52 55 57 58 59 59 57 58 56
82 82 76 76 78 69 55 48 45 44 42 44 43 42 41 41 42 44 45 46 47 47 48 50 49 50 51 49 49 49 48 45 45
85 81 76 78 74 60 49 45 44 46 45 46 46 44 42 40 40 41 43 42 42 43 45 46 47 48 46 44 45 44 42 39 40
83 78 78 77 67 54 46 44 44 43 46 48 49 48 48 45 40 38 39 38 39 40 42 44 45 47 42 43 44 42 40 38 38
79 77 78 70 57 49 45 44 47 45 44 47 48 50 51 48 39 34 35 35 39 39 41 43 43 46 42 44 43 42 40 41 37
78 78 74 60 50 46 44 46 48 48 47 47 47 50 52 50 41 31 30 31 34 37 39 41 42 44 42 43 44 41 40 39 35
80 78 62 51 47 44 44 46 48 50 50 49 47 46 51 50 42 29 22 25 30 34 37 39 42 42 43 44 44 42 41 39 35
78 64 52 47 47 47 47 48 49 50 52 53 51 47 45 48 46 32 25 24 27 31 34 37 42 41 43 44 42 44 43 38 36
64 49 45 46 47 49 50 51 52 52 52 54 56 54 49 43 44 40 29 25 24 28 32 35 39 42 44 44 44 45 41 39 39
50 47 48 48 50 52 54 55 55 55 55 54 55 58 57 52 43 40 35 29 25 26 31 34 39 43 45 46 46 47 43 41 38
Wind_Direction
295 296 293 292 292 289 287 285 284 282 281 280 278 275 271 268 266 262 260 258 257 256 256 255 254 253 254 257 258 258 259 259 259
300 300 298 297 295 295 292 287 285 283 282 280 278 275 273 272 270 266 264 263 260 258 258 257 256 256 254 254 254 257 258 257 259
302 303 302 301 301 299 299 297 293 288 286 285 279 274 272 270 269 269 268 266 264 262 260 258 257 257 257 255 254 255 257 257 256
307 307 306 306 304 301 300 301 296 293 289 283 278 275 273 272 270 268 267 266 266 265 262 261 260 258 257 258 258 256 256 259 259
310 306 307 306 306 304 303 302 301 298 291 284 279 275 272 270 269 267 266 265 265 262 263 262 260 261 261 260 259 258 258 257 258
307 308 308 307 305 306 305 304 302 296 291 287 283 280 276 272 268 265 263 260 261 261 260 262 262 261 260 261 262 263 263 263 262
308 310 311 309 309 307 307 307 302 298 297 294 291 286 282 277 273 269 266 263 259 257 255 256 259 259 260 261 262 263 264 264 264
315 315 312 312 311 312 314 310 307 305 302 299 296 291 286 280 274 270 267 264 261 257 255 253 254 256 257 258 260 261 262 262 264
313 319 316 316 316 320 317 313 311 309 306 303 299 294 286 281 275 270 267 266 259 256 255 253 252 252 254 255 258 259 258 260 261
318 319 320 319 320 322 318 316 314 312 311 308 304 296 288 282 277 273 269 266 260 256 255 253 252 252 252 254 256 257 259 259 261
320 322 321 321 322 323 318 316 315 317 318 318 313 306 295 284 279 274 269 264 258 256 255 253 252 251 251 251 253 255 256 256 259
322 321 322 323 325 321 317 315 318 321 322 325 325 317 307 295 286 277 269 262 258 255 253 249 246 246 248 251 250 249 249 249 249
320 320 321 322 324 319 314 315 319 324 326 329 330 330 321 304 288 276 271 261 256 254 251 246 244 245 244 245 245 242 240 237 240
318 318 320 322 321 316 313 313 319 326 327 329 332 334 332 321 299 278 272 261 253 252 248 242 239 242 242 239 238 235 232 229 232
315 317 319 320 316 314 313 314 319 324 327 329 332 334 337 335 318 290 271 265 253 250 246 240 236 238 235 237 235 230 228 227 232
314 316 318 316 314 314 314 315 319 322 323 328 331 334 336 341 334 307 280 268 255 250 243 237 234 238 233 235 234 229 223 228 230
313 315 316 311 310 313 314 315 318 321 323 326 329 333 334 339 342 329 301 280 264 249 241 236 235 236 233 235 233 228 223 228 231
313 315 313 310 310 312 314 315 317 319 322 323 325 329 332 334 340 333 318 298 276 257 245 238 238 236 234 235 232 227 225 225 232
314 312 308 306 307 309 311 312 313 314 317 319 321 323 327 330 332 334 323 308 289 267 252 243 239 235 233 234 233 227 226 227 230
309 308 307 306 305 306 306 307 306 306 308 310 312 315 317 320 324 325 326 315 300 278 262 249 241 238 236 234 232 226 227 228 232